Kuiper-00113

operational
NORAD ID: 65948 Int'l Des: 2025-228 Owner: KUIP Country: US Constellation: kuiper
NOTLE

About Kuiper-00113

Description loading...

Live Position

Loading 3D Globe...

Upcoming Passes

Altitude History

Altitude vs Time

uPlot chart will show altitude changes over time

Two-Line Element Set

1 65948U 25228B 25318.84961569 .00034026 00000-0 97351-3 0 9991
2 65948 51.8779 154.8739 0006149 247.1322 112.9015 15.35627368 6134
Epoch: Nov 14, 2025 • Age: 7 hours

Current Status

Altitude 472.1 km
Velocity 7.63 km/s
Sub-Earth Point -50.41°S, 66.75°W
Launch Date Oct 14, 2025
Age 32 days
Type internet

Technical Details

Classification Payload
Mass 490.00 kg
Dry Mass 490.00 kg
Total Mass 490.00 kg
Length 1.80 m
Diameter 0.70 m
Span 5.00 m
Shape Box + 2 pan
Manufacturer KUIP
Bus Type Kuiper
Phase Status In Orbit
Owner/State KUIP/US

Large Constellations

Loading constellations...